Regional Weather Roundup
Issued by NWS

Home | Current Version | Previous Version | Text Only | Print | Product List | Glossary On
Versions: 1 2 3 4 5 6 7 8 9 10 11 12 13 14 15 16 17 18 19 20 21 22 23 24 25 26 27 28 29 30 31 32 33 34 35 36 37 38 39 40 41 42 43 44 45 46 47 48 49 50
000
ASUS43 KLSX 270959
RWRMO

WEATHER SUMMARY FOR MISSOURI
NATIONAL WEATHER SERVICE SPRINGFIELD MO
500 AM CDT FRI MAR 27 2015

NOTE: "FAIR" INDICATES FEW OR NO CLOUDS BELOW 12,000 FEET WITH NO
       SIGNIFICANT WEATHER AND/OR OBSTRUCTIONS TO VISIBILITY.
       CURRENT SKY AND/OR WEATHER CONDITIONS ARE NOT AVAILABLE FOR
       CHILLICOTHE AND FARMINGTON.

MOZ001>031-035>038-043-044-053-054-271100-
...NORTHERN AND WESTERN MISSOURI...

CITY           SKY/WX    TMP DP  RH WIND       PRES   REMARKS
KANSAS CTY INT CLOUDY    34  30  85 N12       30.17R WCI  25
KANSAS C DTWN  CLOUDY    38  29  70 N14       30.17S WCI  30
LEE`S SUMMIT   CLOUDY    36  30  79 N13       30.16R WCI  27
ST JOSEPH      CLEAR     32  27  81 N12       30.21R WCI  23
CHILLICOTHE      N/A     34  25  69 N7        30.18S WCI  28
KIRKSVILLE     CLOUDY    31  24  75 N7        30.15R WCI  24

$$
MOZ066>068-077>081-088>096-101>105-271100-
...SOUTHWEST MISSOURI...

CITY           SKY/WX    TMP DP  RH WIND       PRES   REMARKS
SPRINGFIELD    LGT RAIN  38  35  89 NW5       30.07S
JOPLIN         LGT RAIN  39  36  89 NE8       30.10S

$$
MOZ032>034-039>042-045>050-055>058-069>072-271100-
...CENTRAL MISSOURI...

CITY           SKY/WX    TMP DP  RH WIND       PRES   REMARKS
COLUMBIA       LGT SNOW  34  32  92 N8        30.11S FOG     WCI  27
JEFFERSON CITY CLOUDY    36  30  79 N8        30.13R WCI  30
ROLLA          CLOUDY    36  28  73 MISG      30.05S
SEDALIA        LGT SNOW  35  31  85 N16       30.14R FOG     WCI  25
OSAGE BEACH    CLOUDY    39  28  65 N9        30.10R

$$
MOZ051-052-059>065-271100-
...EAST CENTRAL MISSOURI...

CITY           SKY/WX    TMP DP  RH WIND       PRES   REMARKS
ST LOUIS INTL  FLURRIES  36  24  62 N10G18    30.10R WCI  28
SPIRIT OF STL  LGT SNOW  34  27  75 N12       30.11R WCI  25
ST CHARLES     CLOUDY    35  23  61 N13       30.11R WCI  26

$$
MOZ072>076-082>087-097>100-106>115-271100-
...SOUTH CENTRAL AND SOUTHEAST MISSOURI...

CITY           SKY/WX    TMP DP  RH WIND       PRES   REMARKS
CAPE GIRARDEAU PTCLDY    33  32  96 NW5       30.03S WCI  29
FARMINGTON     CLOUDY    37  28  70 NE10      30.08R
POPLAR BLUFF   CLOUDY    38  31  76 NW8       30.04R
WEST PLAINS    CLOUDY    38  33  82 MISG      30.06F

$$


USA.gov is the U.S. government's official web portal to all federal, state and local government web resources and services.